Ireland West Airport Knock, Ireland

7:06 AM GMT on February 18, 2018 (GMT +0000)
Connaught

Weather History for EIKN - February, 2013

Change the Weather History Date:

Thursday, February 7, 2013

  Actual Average Record
Temperature  
Mean Temperature 38 °F -  
Max Temperature 44 °F - - ()
Min Temperature 32 °F - - ()
Degree Days  
Heating Degree Days 27    
Moisture  
Dew Point 39 °F    
Average Humidity 90    
Maximum Humidity 100    
Minimum Humidity 76    
Precipitation  
Precipitation 0.24 in - - ()
Sea Level Pressure  
Sea Level Pressure 30.10 in    
Wind  
Wind Speed 13 mph ()    
Max Wind Speed 36 mph    
Max Gust Speed 50 mph    
Visibility 5.7 miles    
Events Fog , Rain    
T = Trace of Precipitation, MM = Missing Value Source: Averaged Metar Reports

Daily Weather History Graph

Daily Weather History Graph

Search for Another Location

Airport or City:

Trip Planner

Search our weather history database for the weather conditions in past years. The results will help you decide how hot, cold, wet, or windy it might be!

Date:

Astronomy

Feb. 07, 2013 Rise Set
Actual Time 8:10 AM GMT 5:28 PM GMT
Civil Twilight 7:33 AM GMT 6:06 PM GMT
Nautical Twilight 6:51 AM GMT 6:48 PM GMT
Astronomical Twilight 6:10 AM GMT 7:29 PM GMT
Moon 5:54 AM GMT (2/7) 2:23 PM GMT (2/7)
Length of Visible Light 10h 33m
Length of Day
9h 18m
Waning Crescent, 10% of the Moon is Illuminated
Feb 7
Waning Crescent
Feb 10
New
Feb 17
First Quarter
Feb 25
Full
Mar 4
Last Quarter

Hourly Weather History & Observations

Time (GMT) Temp. Windchill Dew Point Humidity Pressure Visibility Wind Dir Wind Speed Gust Speed Precip Events Conditions
12:00 AM 34 °F - 32 °F 91% 30.34 in - West 6.7 mph - -  
6:00 AM 35 °F - 33 °F 90% 30.22 in 16 mi SW 6.7 mph - -   Partly Cloudy
8:00 AM 35.6 °F 29.2 °F 33.8 °F 93% 30.09 in 4.3 mi South 8.1 mph - N/A Rain Light Rain
8:30 AM 35.6 °F 29.2 °F 35.6 °F 100% 30.09 in 4.3 mi South 8.1 mph - N/A Rain Light Rain
9:00 AM 37.4 °F 30.8 °F 35.6 °F 93% 30.06 in 0.4 mi SSW 9.2 mph - N/A Fog , Rain Light Rain
9:30 AM 37.4 °F 32.1 °F 37.4 °F 100% 30.06 in 0.3 mi SW 6.9 mph - N/A Fog , Rain Light Rain
10:00 AM 39.2 °F 33.0 °F 39.2 °F 100% 30.06 in 6.2 mi West 9.2 mph - N/A   Mostly Cloudy
10:30 AM 41.0 °F 34.3 °F 39.2 °F 93% 30.06 in 3.7 mi West 11.5 mph - N/A Rain Light Rain
11:00 AM 42.8 °F 34.0 °F 42.8 °F 100% 30.06 in 6.2 mi WNW 20.7 mph - N/A Rain Light Rain
11:30 AM 42.8 °F 33.8 °F 42.8 °F 100% 30.06 in 6.2 mi WNW 21.9 mph - N/A   Mostly Cloudy
12:00 PM 44 °F - 42 °F 89% 30.09 in 4 mi WNW 22.4 mph - - Rain Light Rain
12:00 PM 44.6 °F 35.9 °F 42.8 °F 93% 30.06 in 3.7 mi WNW 23.0 mph - N/A Rain Light Rain
12:30 PM 42.8 °F 33.5 °F 41.0 °F 93% 30.06 in 5.0 mi NW 23.0 mph 39.1 mph N/A Rain Light Rain
1:00 PM 44.6 °F 35.1 °F 41.0 °F 87% 30.06 in 3.7 mi NW 27.6 mph 43.7 mph N/A Rain Light Rain
1:30 PM 44.6 °F 35.7 °F 41.0 °F 87% 30.06 in 3.1 mi NW 24.2 mph 39.1 mph N/A Rain Light Rain Showers
2:00 PM 44.6 °F 35.5 °F 39.2 °F 81% 30.06 in 5.0 mi NW 25.3 mph - N/A   Mostly Cloudy
2:30 PM 42.8 °F 32.3 °F 39.2 °F 87% 30.06 in 5.6 mi NW 29.9 mph 43.7 mph N/A Rain Light Rain Showers
3:00 PM 44.6 °F 33.9 °F 39.2 °F 81% 30.09 in 6.2 mi NNW 35.7 mph 49.5 mph N/A   Scattered Clouds
3:30 PM 44.6 °F 35.7 °F 39.2 °F 81% 30.12 in 6.2 mi NNW 24.2 mph 38.0 mph N/A Rain Light Rain Showers
4:00 PM 42.8 °F 33.3 °F 37.4 °F 81% 30.12 in 6.2 mi NNW 24.2 mph 35.7 mph N/A   Partly Cloudy
4:30 PM 44.6 °F 36.4 °F 37.4 °F 76% 30.15 in 6.2 mi NNW 20.7 mph 33.4 mph N/A   Partly Cloudy
5:00 PM 42.8 °F 34.3 °F 39.2 °F 87% 30.15 in 6.2 mi NW 19.6 mph - N/A   Scattered Clouds
6:00 PM 42 °F - 38 °F 79% 30.20 in 16 mi NNW 13.4 mph - -   Partly Cloudy